Simultaneous Nadir Overpasses (SNOs) Predictions

Prediction of SNOs between GOES-17 and LANDSAT-8 Satellite Orbit:

Table of predicted SNOs for the next 14.0 days since TLE Epoch: 3/16/2024
Index Date Time (GOES-17) GOES-17 Lat,Lon LANDSAT-8 Lat,Lon Distance(km) Time Diff (sec)
1 03/16/2024 05:27:49 0.01,-104.69 -0.79,-108.49 431.29 80
2 03/17/2024 16:54:12 -0.02,-104.68 -0.92,-100.33 494.01 80
3 03/18/2024 05:15:36 0.02,-104.69 -0.18,-105.53 95.80 80
4 03/20/2024 05:00:43 0.01,-104.68 0.44,-102.57 240.42 80
5 03/20/2024 17:21:58 -0.00,-104.68 0.66,-107.72 346.67 80
6 03/22/2024 17:09:45 0.01,-104.68 0.01,-104.76 9.73 80
7 03/24/2024 17:00:11 0.01,-104.68 -0.58,-101.80 327.57 80
8 03/25/2024 05:21:35 -0.01,-104.69 -0.50,-106.99 261.39 80
9 03/27/2024 05:06:41 -0.01,-104.70 0.12,-104.03 75.99 80
10 03/29/2024 04:54:27 -0.02,-104.70 0.75,-101.06 413.20 80
11 03/29/2024 17:15:42 0.02,-104.68 0.33,-106.22 174.32 80
